星链-11621 (STARLINK-11621)

导读 | 星芒AI

STARLINK-11621 是 SpaceX Starlink 项目中的一颗低轨通信卫星,属于第 56 批次发射的星链卫星群。该卫星于 2023 年 9 月 28 日由猎鹰 9 号火箭从美国卡纳维拉尔角发射升空,部署在约 540 公里的轨道高度,旨在为全球提供高速互联网服务。作为星链网络的一部分,STARLINK-11621 采用先进推进系统和激光通信技术,提升网络效率与稳定性,支持偏远地区互联网接入,助力全球数字连接。

基本信息
目录编号:
63273
目录名称:
STARLINK-11621
国际标识:
2025-053J
轨道中心:
EARTH
卫星名称:
星链-11621
卫星全名:
星链-11621 (STARLINK-11621)
卫星状态:
在轨 (已飞行281 天)
发射日期:
2025-03-15 UTC
国别 :
美国 (US)
星等 :
--
轨道信息
数据来源 国际轨道数据
星历时间: 2025-12-21T08:49:53+0800
21小时前
查看轨道信息
半长轴: 6734.153km
偏心率: 0.0001298
轨道倾角: 42.997°
近地点辐角 286.541°
升交点赤经 225.930°
平近点角 73.532°
近地点: 355.141km
远地点: 356.891km
周期: 91.661分钟
每日圈数: 15.710077
详细信息
固有亮度:
5
最大亮度:
2.5
卫星平台:
Starlink V1.0
覆盖范围:
全球
运营商:
太空探索技术公司
运营商所在国:
美国
制造商(研发单位):
太空探索技术公司
制造商所在国:
美国
使用方式:
暂无
卫星简介
Starlink 计划是 SpaceX 推出的全球卫星互联网项目,通过发射低轨道卫星,为全球尤其是偏远地区提供高速、低延迟的互联网服务。自 2019 年起,Starlink 已部署数千颗卫星,旨在缩小全球数字鸿沟,推动互联网普及。该项目还为军事、航空等行业提供通信支持,带来广泛经济效益。
2D轨道图
3D轨道图
轨道高度分析图
轨道倾角分析图
轨道综合分析图
查看轨道综合分析图